User: anonymous   Login
Location: Montr�al
(45.5000°N, 73.5830°W)
Time: 13:52:30
(UTC-04:00)
Language:

Cosmos 2369 - Orbit

View from above orbital plane
View from above orbital plane
View from above satellite
View from above satellite

Ground track
Ground track

The orbit data is extracted from the following two-line orbital elements,

1 26069U 00006A   14304.15858321  .00000391  00000-0  23396-3 0  3885
2 26069 070.9968 210.0720 0012600 248.7430 214.3331 14.13255295760482
Epoch (UTC): 31 October 2014 03:48:21
Eccentricity: 0.0012600
inclination: 70.9968°
perigee height: 839 km
apogee height: 857 km
right ascension of ascending node: 210.0720°
argument of perigee: 248.7430°
revolutions per day: 14.13255295
mean anomaly at epoch: 214.3331°
orbit number at epoch: 76048

The dashed part of the orbit path shows where the satellite is in the earth's shadow,  

DLR